TimeEDT,TemperatureF,Dew PointF,Humidity,Sea Level PressureIn,VisibilityMPH,Wind Direction,Wind SpeedMPH,Gust SpeedMPH,PrecipitationIn,Events,Conditions,WindDirDegrees,DateUTC
12:15 AM,17.6,14.0,86,29.74,3.0,SW,3.5,-,N/A,Snow,Light Snow,230,2013-03-21 04:15:00
12:35 AM,15.8,12.2,86,29.74,10.0,SSW,5.8,-,N/A,,Scattered Clouds,210,2013-03-21 04:35:00
12:55 AM,15.8,12.2,86,29.73,7.0,SSW,4.6,-,N/A,Snow,Light Snow,200,2013-03-21 04:55:00
1:15 AM,15.8,14.0,93,29.72,5.0,SSW,3.5,-,N/A,Snow,Light Snow,200,2013-03-21 05:15:00
1:35 AM,15.8,14.0,93,29.72,2.0,SSW,3.5,-,N/A,Snow,Light Snow,200,2013-03-21 05:35:00
1:55 AM,15.8,14.0,93,29.71,2.5,Calm,Calm,-,N/A,Snow,Light Snow,0,2013-03-21 05:55:00
2:15 AM,15.8,14.0,93,29.71,4.0,SW,4.6,-,N/A,Snow,Light Snow,230,2013-03-21 06:15:00
2:35 AM,14.0,12.2,93,29.71,5.0,SW,3.5,-,N/A,Snow,Light Snow,220,2013-03-21 06:35:00
2:55 AM,15.8,14.0,93,29.71,4.0,WSW,3.5,-,N/A,Snow,Light Snow,240,2013-03-21 06:55:00
3:15 AM,15.8,14.0,93,29.70,3.0,Calm,Calm,-,N/A,Snow,Light Snow,0,2013-03-21 07:15:00
3:35 AM,15.8,14.0,93,29.70,1.8,Calm,Calm,-,N/A,Snow,Light Snow,0,2013-03-21 07:35:00
3:55 AM,15.8,14.0,93,29.69,1.0,Calm,Calm,-,N/A,Snow,Snow,0,2013-03-21 07:55:00
4:15 AM,15.8,14.0,93,29.68,1.2,Calm,Calm,-,N/A,Snow,Light Snow,0,2013-03-21 08:15:00
4:35 AM,15.8,14.0,93,29.68,1.0,Calm,Calm,-,N/A,Snow,Light Snow,0,2013-03-21 08:35:00
4:55 AM,14.0,12.2,93,29.67,1.5,Calm,Calm,-,N/A,Snow,Light Snow,0,2013-03-21 08:55:00
5:15 AM,14.0,12.2,93,29.67,2.5,Calm,Calm,-,N/A,Snow,Light Snow,0,2013-03-21 09:15:00
5:55 AM,14.0,12.2,93,29.67,5.0,Calm,Calm,-,N/A,Snow,Light Snow,0,2013-03-21 09:55:00
6:15 AM,14.0,12.2,93,29.67,4.0,Calm,Calm,-,N/A,Snow,Light Snow,0,2013-03-21 10:15:00
6:35 AM,14.0,12.2,93,29.68,10.0,Calm,Calm,-,N/A,,Overcast,0,2013-03-21 10:35:00
6:55 AM,14.0,12.2,93,29.68,3.0,Calm,Calm,-,N/A,Snow,Light Snow,0,2013-03-21 10:55:00
7:15 AM,14.0,12.2,93,29.67,1.2,SSW,3.5,-,N/A,Snow,Light Snow,210,2013-03-21 11:15:00
7:35 AM,14.0,12.2,93,29.67,1.5,Calm,Calm,-,N/A,Snow,Light Snow,0,2013-03-21 11:35:00
7:55 AM,14.0,12.2,93,29.67,10.0,Calm,Calm,-,N/A,Snow,Light Snow,0,2013-03-21 11:55:00
8:15 AM,14.0,12.2,93,29.67,5.0,Calm,Calm,-,N/A,Snow,Light Snow,0,2013-03-21 12:15:00
8:35 AM,15.8,12.2,86,29.67,4.0,West,3.5,-,N/A,Snow,Light Snow,270,2013-03-21 12:35:00
8:55 AM,15.8,14.0,93,29.67,4.0,Calm,Calm,-,N/A,Snow,Light Snow,0,2013-03-21 12:55:00
9:15 AM,17.6,12.2,79,29.67,2.5,West,3.5,-,N/A,Snow,Light Snow,270,2013-03-21 13:15:00
9:35 AM,17.6,12.2,79,29.67,5.0,Calm,Calm,-,N/A,Snow,Light Snow,0,2013-03-21 13:35:00
9:55 AM,17.6,10.4,73,29.67,7.0,West,6.9,-,N/A,Snow,Light Snow,270,2013-03-21 13:55:00
10:15 AM,19.4,10.4,68,29.68,10.0,West,9.2,-,N/A,Snow,Light Snow,260,2013-03-21 14:15:00
10:35 AM,17.6,10.4,73,29.68,7.0,WSW,8.1,-,N/A,Snow,Light Snow,250,2013-03-21 14:35:00
10:55 AM,17.6,10.4,73,29.68,10.0,West,8.1,-,N/A,Snow,Light Snow,260,2013-03-21 14:55:00
11:15 AM,19.4,10.4,68,29.67,10.0,West,5.8,-,N/A,Snow,Light Snow,280,2013-03-21 15:15:00
11:35 AM,17.6,10.4,73,29.67,5.0,West,8.1,-,N/A,Snow,Light Snow,270,2013-03-21 15:35:00
11:55 AM,21.2,10.4,63,29.67,10.0,Calm,Calm,-,N/A,Snow,Light Snow,0,2013-03-21 15:55:00
12:15 PM,19.4,8.6,63,29.67,10.0,West,5.8,19.6,N/A,,Overcast,260,2013-03-21 16:15:00
12:35 PM,19.4,8.6,63,29.67,5.0,WSW,8.1,17.3,N/A,Snow,Light Snow,250,2013-03-21 16:35:00
12:55 PM,21.2,8.6,58,29.66,7.0,West,5.8,-,N/A,,Overcast,260,2013-03-21 16:55:00
1:15 PM,21.2,8.6,58,29.67,10.0,West,4.6,-,N/A,,Overcast,280,2013-03-21 17:15:00
1:35 PM,23.0,8.6,54,29.66,10.0,SW,6.9,-,N/A,,Overcast,230,2013-03-21 17:35:00
1:55 PM,21.2,8.6,58,29.66,10.0,WSW,3.5,-,N/A,,Overcast,250,2013-03-21 17:55:00
2:15 PM,21.2,8.6,58,29.66,10.0,WNW,5.8,-,N/A,,Overcast,290,2013-03-21 18:15:00
2:35 PM,21.2,8.6,58,29.66,10.0,West,9.2,-,N/A,,Overcast,260,2013-03-21 18:35:00
2:55 PM,23.0,10.4,59,29.65,10.0,West,10.4,-,N/A,,Overcast,270,2013-03-21 18:55:00
3:15 PM,23.0,12.2,63,29.65,10.0,West,5.8,-,N/A,,Overcast,280,2013-03-21 19:15:00
3:35 PM,23.0,12.2,63,29.64,10.0,West,5.8,17.3,N/A,Snow,Light Snow,270,2013-03-21 19:35:00
3:55 PM,23.0,14.0,68,29.64,10.0,WSW,4.6,-,N/A,Snow,Light Snow,250,2013-03-21 19:55:00
4:15 PM,21.2,15.8,80,29.64,1.5,West,10.4,16.1,N/A,Snow,Light Snow,260,2013-03-21 20:15:00
4:35 PM,21.2,17.6,86,29.64,1.5,West,6.9,-,N/A,Snow,Light Snow,260,2013-03-21 20:35:00
4:55 PM,21.2,17.6,86,29.64,2.5,West,6.9,-,N/A,Snow,Light Snow,280,2013-03-21 20:55:00
5:15 PM,21.2,17.6,86,29.65,1.8,West,4.6,-,N/A,Snow,Light Snow,260,2013-03-21 21:15:00
5:35 PM,23.0,17.6,80,29.65,1.2,WSW,3.5,-,N/A,Snow,Light Snow,250,2013-03-21 21:35:00
5:55 PM,21.2,19.4,93,29.65,1.2,West,5.8,-,N/A,Snow,Light Snow,260,2013-03-21 21:55:00
6:15 PM,21.2,19.4,93,29.65,0.8,West,5.8,-,N/A,Snow,Snow,270,2013-03-21 22:15:00
6:35 PM,21.2,19.4,93,29.65,1.2,WSW,5.8,-,N/A,Snow,Light Snow,250,2013-03-21 22:35:00
6:55 PM,21.2,19.4,93,29.64,1.2,West,6.9,-,N/A,Snow,Light Snow,260,2013-03-21 22:55:00
7:15 PM,21.2,19.4,93,29.64,0.8,WSW,5.8,-,N/A,Snow,Light Snow,250,2013-03-21 23:15:00
7:35 PM,21.2,19.4,93,29.64,1.0,WSW,5.8,-,N/A,Snow,Light Snow,250,2013-03-21 23:35:00
7:55 PM,21.2,19.4,93,29.64,1.5,WSW,5.8,-,N/A,Snow,Light Snow,240,2013-03-21 23:55:00
8:15 PM,21.2,19.4,93,29.65,2.0,West,4.6,-,N/A,Snow,Light Snow,260,2013-03-22 00:15:00
8:35 PM,21.2,19.4,93,29.66,2.5,Calm,Calm,-,N/A,Snow,Light Snow,0,2013-03-22 00:35:00
8:55 PM,21.2,19.4,93,29.66,7.0,West,8.1,-,N/A,,Overcast,280,2013-03-22 00:55:00
9:15 PM,21.2,17.6,86,29.66,10.0,West,9.2,21.9,N/A,,Overcast,270,2013-03-22 01:15:00
9:35 PM,21.2,17.6,86,29.67,7.0,WNW,15.0,24.2,N/A,,Overcast,300,2013-03-22 01:35:00
9:55 PM,21.2,15.8,80,29.67,10.0,WNW,4.6,-,N/A,,Overcast,290,2013-03-22 01:55:00
10:15 PM,21.2,17.6,86,29.67,4.0,West,6.9,-,N/A,Snow,Light Snow,280,2013-03-22 02:15:00
10:35 PM,21.2,19.4,93,29.67,2.5,West,3.5,-,N/A,Snow,Light Snow,270,2013-03-22 02:35:00
10:55 PM,21.2,17.6,86,29.67,2.5,WNW,9.2,-,N/A,Snow,Light Snow,290,2013-03-22 02:55:00
11:15 PM,19.4,19.4,100,29.68,0.8,WNW,3.5,-,N/A,Snow,Snow,290,2013-03-22 03:15:00
11:35 PM,19.4,17.6,93,29.67,2.5,West,4.6,-,N/A,Snow,Light Snow,270,2013-03-22 03:35:00
11:55 PM,19.4,17.6,93,29.68,2.0,WNW,6.9,-,N/A,Snow,Light Snow,290,2013-03-22 03:55:00